Flag for U.S.A. Weather past 2 weeks in New Salem, North Dakota, U.S.A.

Now
20 °F

Clear.


Feels Like: 11 °F
Forecast: 15 / 42 °F
Wind: 7 mph from Northwest

Location: Bismarck Municipal Airport

Current Time: Mar 6, 2015 at 2:39:54 AM

Latest Report: Mar 6, 2015 at 1:52 AM


Visibility: 10 mi

Pressure: 30.10 "Hg

Humidity: 71%

Dew point: 12 °F

Location of New SalemLocation

Historic Weather in New Salem — Graph

°F

New Salem temperature yesterday

Maximum temperature yesterday: 40 °F (at 3:52 PM)
Minimum temperature yesterday: -7 °F (at 12:52 AM)
Average temperature yesterday: 16 °F

Past Weeks' High & Low Weather Summary

 TemperatureHumidityPressure
High41 °F (Mar 2, 3:52 PM)92% (Feb 20, 5:52 AM)30.90 "Hg (Feb 20, 5:52 AM)
Low-14 °F (Feb 22, 6:52 AM)28% (Mar 5, 1:52 PM)29.71 "Hg (Feb 20, 3:02 AM)
Average12 °F67%30.28 "Hg
* Reported Feb 19 12:52 AM — Mar 6 12:52 AM, New Salem, Weather by CustomWeather, © 2015

Note: Actual official high and low records may vary slightly from our data, if they occured in-between our weather recording intervals... More about our weather records

Advertising

New Salem weather history for previous 24 hours

 ConditionsComfort  
Time TempWeatherWind HumidityBarometerVisibility
12:52 AM
Fri, Mar 6
26 °FPassing clouds.9 mph60%30.08 "Hg10 mi
11:52 PM
Thu, Mar 5
24 °FPassing clouds.6 mph62%30.09 "Hg10 mi
10:52 PM23 °FPassing clouds.3 mph63%30.12 "Hg10 mi
9:52 PM24 °FClear.5 mph62%30.14 "Hg10 mi
8:52 PM25 °FClear.3 mph60%30.16 "Hg10 mi
7:52 PM28 °FClear.5 mph51%30.17 "Hg10 mi
6:52 PM32 °FClear.7 mph43%30.17 "Hg10 mi
5:52 PM38 °FSunny.14 mph37%30.15 "Hg10 mi
4:52 PM40 °FSunny.10 mph35%30.14 "Hg10 mi
3:52 PM40 °FSunny.7 mph30%30.13 "Hg10 mi
2:52 PM38 °FSunny.12 mph30%30.14 "Hg10 mi
1:52 PM36 °FSunny.16 mph28%30.17 "Hg10 mi
12:52 PM30 °FSunny.14 mph36%30.22 "Hg10 mi
11:52 AM26 °FSunny.14 mph38%30.24 "Hg10 mi
10:52 AM20 °FSunny.7 mph45%30.28 "Hg10 mi
9:52 AM10 °FSunny.6 mph67%30.31 "Hg10 mi
8:52 AM4 °FSunny.6 mph76%30.34 "Hg10 mi
7:52 AM-3 °FSunny.6 mph75%30.34 "Hg10 mi
6:52 AM-5 °FClear.6 mph75%30.36 "Hg10 mi
5:52 AM-5 °FClear.6 mph75%30.37 "Hg10 mi
4:52 AM-6 °FClear.5 mph75%30.39 "Hg10 mi
3:52 AM-7 °FClear.6 mph79%30.41 "Hg10 mi
2:52 AM-7 °FClear.5 mph79%30.45 "Hg10 mi
Weather by CustomWeather, © 2015

See weather overviewHow to use our weather pages